,,Stat5,,Stat1,,Stat2,,Stat3,,Stat4,,Wind1,,Wind1,
time,status,PA1M_AVG,status,PR1M_SUM,status,RH1M_AVG,status,SR1M_AVG,status,TA1M_AVG,status,W1dAve1m,status,W1sAve1m,
2000-06-14, 00:00:00,VALID,919.734,VALID,0,VALID,98.3205,VALID,0,VALID,18.2312,VALID,198,VALID,0,
2000-06-14, 00:01:00,VALID,919.74,VALID,0,VALID,98.3497,VALID,-0.0169808,VALID,18.2055,VALID,212,VALID,0.292969,
2000-06-14, 00:02:00,VALID,919.754,VALID,0,VALID,98.4794,VALID,0,VALID,18.1855,VALID,209,VALID,0.804888,
2000-06-14, 00:03:00,VALID,919.765,VALID,0,VALID,98.8749,VALID,0,VALID,18.2699,VALID,215,VALID,1.06191,
2000-06-14, 00:04:00,VALID,919.775,VALID,0,VALID,99.0109,VALID,-0.0169808,VALID,18.3631,VALID,217,VALID,1.01603,
2000-06-14, 00:05:00,VALID,919.789,VALID,0,VALID,98.9881,VALID,0,VALID,18.3956,VALID,210,VALID,1.27604,
2000-06-14, 00:06:00,VALID,919.792,VALID,0,VALID,98.9537,VALID,0,VALID,18.3823,VALID,207,VALID,1.1932,
2000-06-14, 00:07:00,VALID,919.801,VALID,0,VALID,99.0148,VALID,0,VALID,18.379,VALID,197,VALID,1.06855,
2000-06-14, 00:08:00,VALID,919.798,VALID,0,VALID,99.0593,VALID,0,VALID,18.3919,VALID,197,VALID,1.04113,
2000-06-14, 00:09:00,VALID,919.788,VALID,0,VALID,99.0287,VALID,0,VALID,18.3922,VALID,180,VALID,0.794336,
2000-06-14, 00:10:00,VALID,919.792,VALID,0,VALID,99.0491,VALID,0,VALID,18.3467,VALID,174,VALID,0.928886,
2000-06-14, 00:11:00,VALID,919.785,VALID,0,VALID,99.2233,VALID,0,VALID,18.3892,VALID,171,VALID,1.05489,
2000-06-14, 00:12:00,VALID,919.763,VALID,0,VALID,99.3021,VALID,0,VALID,18.4312,VALID,180,VALID,0.953125,
2000-06-14, 00:13:00,VALID,919.763,VALID,0,VALID,99.2958,VALID,0,VALID,18.4411,VALID,181,VALID,0.917969,
2000-06-14, 00:14:00,VALID,919.77,VALID,0,VALID,99.306,VALID,0,VALID,18.4475,VALID,180,VALID,1.02422,
2000-06-14, 00:15:00,VALID,919.754,VALID,0,VALID,99.3174,VALID,0,VALID,18.4411,VALID,184,VALID,1.05188,
2000-06-14, 00:16:00,VALID,919.745,VALID,0,VALID,99.3683,VALID,0,VALID,18.46,VALID,197,VALID,1.20991,
2000-06-14, 00:17:00,VALID,919.728,VALID,0,VALID,99.3899,VALID,0,VALID,18.4734,VALID,194,VALID,1.30829,
2000-06-14, 00:18:00,VALID,919.719,VALID,0,VALID,99.4395,VALID,-0.0169808,VALID,18.5025,VALID,197,VALID,1.19712,
2000-06-14, 00:19:00,VALID,919.71,VALID,0,VALID,99.4878,VALID,0,VALID,18.5348,VALID,188,VALID,1.12416,
2000-06-14, 00:20:00,VALID,919.698,VALID,0,VALID,99.5031,VALID,0,VALID,18.5569,VALID,176,VALID,0.991987,
2000-06-14, 00:21:00,VALID,919.685,VALID,0,VALID,99.5069,VALID,0,VALID,18.5599,VALID,181,VALID,1.14128,
2000-06-14, 00:22:00,VALID,919.679,VALID,0,VALID,99.545,VALID,-0.0169808,VALID,18.6026,VALID,196,VALID,1.11133,
2000-06-14, 00:23:00,VALID,919.668,VALID,0,VALID,99.5374,VALID,0,VALID,18.6157,VALID,201,VALID,0.760938,
2000-06-14, 00:24:00,VALID,919.655,VALID,0,VALID,99.5183,VALID,-0.0169808,VALID,18.6023,VALID,202,VALID,0.817779,
2000-06-14, 00:25:00,VALID,919.656,VALID,0,VALID,99.4903,VALID,-0.0169808,VALID,18.5793,VALID,210,VALID,0.98137,
2000-06-14, 00:26:00,VALID,919.656,VALID,0,VALID,99.4713,VALID,-0.0339617,VALID,18.5606,VALID,213,VALID,1.05243,
2000-06-14, 00:27:00,VALID,919.645,VALID,0,VALID,99.498,VALID,0,VALID,18.5377,VALID,222,VALID,1.11509,
2000-06-14, 00:28:00,VALID,919.636,VALID,0,VALID,99.5336,VALID,-0.0169808,VALID,18.5571,VALID,215,VALID,1.05349,
2000-06-14, 00:29:00,VALID,919.612,VALID,0,VALID,99.5755,VALID,-0.0169808,VALID,18.5737,VALID,214,VALID,1.10515,
2000-06-14, 00:30:00,VALID,919.583,VALID,0,VALID,99.5743,VALID,0,VALID,18.5864,VALID,206,VALID,0.90625,
2000-06-14, 00:31:00,VALID,919.56,VALID,0,VALID,99.5577,VALID,0,VALID,18.577,VALID,204,VALID,0.886619,
2000-06-14, 00:32:00,VALID,919.523,VALID,0,VALID,99.5488,VALID,-0.0169808,VALID,18.5638,VALID,199,VALID,0.694079,
2000-06-14, 00:33:00,VALID,919.503,VALID,0,VALID,99.5679,VALID,-0.0339617,VALID,18.5571,VALID,201,VALID,0.993666,
2000-06-14, 00:34:00,VALID,919.493,VALID,0,VALID,99.5679,VALID,0,VALID,18.5638,VALID,200,VALID,0.909856,
2000-06-14, 00:35:00,VALID,919.488,VALID,0,VALID,99.5806,VALID,0,VALID,18.5537,VALID,209,VALID,1.00574,
2000-06-14, 00:36:00,VALID,919.489,VALID,0,VALID,99.5819,VALID,0,VALID,18.5507,VALID,193,VALID,0.819511,
2000-06-14, 00:37:00,VALID,919.496,VALID,0,VALID,99.5755,VALID,0,VALID,18.5377,VALID,186,VALID,1.18997,
2000-06-14, 00:38:00,VALID,919.499,VALID,0,VALID,99.5183,VALID,0,VALID,18.5087,VALID,177,VALID,1.00868,
2000-06-14, 00:39:00,VALID,919.485,VALID,0,VALID,99.6035,VALID,-0.0339617,VALID,18.4995,VALID,184,VALID,1.16174,
2000-06-14, 00:40:00,VALID,919.455,VALID,0,VALID,99.6544,VALID,0,VALID,18.5398,VALID,180,VALID,1.02793,
2000-06-14, 00:41:00,VALID,919.428,VALID,0,VALID,99.6404,VALID,0.0339617,VALID,18.5557,VALID,179,VALID,0.971012,
2000-06-14, 00:42:00,VALID,919.395,VALID,0,VALID,99.601,VALID,0.0339617,VALID,18.5359,VALID,172,VALID,0.875845,
2000-06-14, 00:43:00,VALID,919.364,VALID,0,VALID,99.5743,VALID,0.0169808,VALID,18.5304,VALID,177,VALID,0.867989,
2000-06-14, 00:44:00,VALID,919.352,VALID,0,VALID,99.559,VALID,0.0169808,VALID,18.4914,VALID,187,VALID,1.03005,
2000-06-14, 00:45:00,VALID,919.34,VALID,0,VALID,99.5463,VALID,0.0339617,VALID,18.4851,VALID,181,VALID,1.01891,
2000-06-14, 00:46:00,VALID,919.343,VALID,0,VALID,99.4891,VALID,0.0509425,VALID,18.4464,VALID,200,VALID,1.02576,
2000-06-14, 00:47:00,VALID,919.343,VALID,0,VALID,99.4992,VALID,0.0509425,VALID,18.4044,VALID,209,VALID,1.16587,
2000-06-14, 00:48:00,VALID,919.327,VALID,0,VALID,99.5399,VALID,0.0169808,VALID,18.3975,VALID,216,VALID,1.50507,
2000-06-14, 00:49:00,VALID,919.305,VALID,0,VALID,99.5552,VALID,0.0169808,VALID,18.4067,VALID,218,VALID,1.57855,
2000-06-14, 00:50:00,VALID,919.295,VALID,0,VALID,99.5539,VALID,0.0339617,VALID,18.4039,VALID,215,VALID,1.4112,
2000-06-14, 00:51:00,VALID,919.271,VALID,0,VALID,99.531,VALID,0.0169808,VALID,18.3942,VALID,206,VALID,0.799262,
2000-06-14, 00:52:00,VALID,919.244,VALID,0,VALID,99.5628,VALID,0.0169808,VALID,18.3878,VALID,204,VALID,0.830664,
2000-06-14, 00:53:00,VALID,919.214,VALID,0,VALID,99.5794,VALID,0.0339617,VALID,18.3742,VALID,190,VALID,0.86278,
2000-06-14, 00:54:00,VALID,919.183,VALID,0,VALID,99.5984,VALID,0.0169808,VALID,18.3776,VALID,202,VALID,0.935742,
2000-06-14, 00:55:00,VALID,919.168,VALID,0,VALID,99.6315,VALID,0.0169808,VALID,18.4268,VALID,194,VALID,1.00555,
2000-06-14, 00:56:00,VALID,919.168,VALID,0,VALID,99.587,VALID,0.0169808,VALID,18.4166,VALID,211,VALID,1.19326,
2000-06-14, 00:57:00,VALID,919.157,VALID,0,VALID,99.5336,VALID,0,VALID,18.4205,VALID,214,VALID,0.825169,
2000-06-14, 00:58:00,VALID,919.152,VALID,0,VALID,99.5476,VALID,0.0169808,VALID,18.4367,VALID,205,VALID,1.0793,
2000-06-14, 00:59:00,VALID,919.157,VALID,0,VALID,99.5196,VALID,0.0339617,VALID,18.4395,VALID,201,VALID,1.01128,
2000-06-14, 01:00:00,VALID,919.154,VALID,0,VALID,99.4853,VALID,0.0169808,VALID,18.4591,VALID,215,VALID,1.0209,
2000-06-14, 01:01:00,VALID,919.162,VALID,0,VALID,99.4051,VALID,0.0509425,VALID,18.4492,VALID,207,VALID,1.02241,
2000-06-14, 01:02:00,VALID,919.154,VALID,0,VALID,99.4166,VALID,0,VALID,18.4556,VALID,197,VALID,1.27391,
2000-06-14, 01:03:00,VALID,919.151,VALID,0,VALID,99.3772,VALID,0,VALID,18.4817,VALID,200,VALID,1.15461,
2000-06-14, 01:04:00,VALID,919.136,VALID,0,VALID,99.3912,VALID,0.0509425,VALID,18.4849,VALID,204,VALID,1.22246,
2000-06-14, 01:05:00,VALID,919.125,VALID,0,VALID,99.4268,VALID,0.0339617,VALID,18.5103,VALID,199,VALID,1.23191,
2000-06-14, 01:06:00,VALID,919.123,VALID,0,VALID,99.4115,VALID,0.0849042,VALID,18.5167,VALID,204,VALID,0.917558,
2000-06-14, 01:07:00,VALID,919.114,VALID,0,VALID,99.4318,VALID,0.0339617,VALID,18.5304,VALID,216,VALID,0.971955,
2000-06-14, 01:08:00,VALID,919.112,VALID,0,VALID,99.4585,VALID,0.0169808,VALID,18.5592,VALID,206,VALID,0.790465,
2000-06-14, 01:09:00,VALID,919.119,VALID,0,VALID,99.4636,VALID,0.0509425,VALID,18.5753,VALID,207,VALID,1.184,
2000-06-14, 01:10:00,VALID,919.107,VALID,0,VALID,99.4611,VALID,0.0679233,VALID,18.6141,VALID,213,VALID,1.10403,
2000-06-14, 01:11:00,VALID,919.111,VALID,0,VALID,99.4115,VALID,0.0509425,VALID,18.6233,VALID,205,VALID,0.891406,
2000-06-14, 01:12:00,VALID,919.122,VALID,0,VALID,99.3962,VALID,0.0339617,VALID,18.6397,VALID,215,VALID,0.852455,
2000-06-14, 01:13:00,VALID,919.127,VALID,0,VALID,99.3619,VALID,0.0339617,VALID,18.6494,VALID,211,VALID,0.971073,
2000-06-14, 01:14:00,VALID,919.14,VALID,0,VALID,99.2818,VALID,0.0339617,VALID,18.6496,VALID,216,VALID,0.597656,
2000-06-14, 01:15:00,VALID,919.139,VALID,0,VALID,99.25,VALID,0.0339617,VALID,18.6302,VALID,224,VALID,1.28342,
2000-06-14, 01:16:00,VALID,919.158,VALID,0,VALID,99.2093,VALID,0.0169808,VALID,18.6141,VALID,221,VALID,1.08702,
2000-06-14, 01:17:00,VALID,919.155,VALID,0,VALID,99.2258,VALID,0,VALID,18.5942,VALID,215,VALID,1.30715,
2000-06-14, 01:18:00,VALID,919.144,VALID,0,VALID,99.2347,VALID,0.0169808,VALID,18.6012,VALID,236,VALID,1.16406,
2000-06-14, 01:19:00,VALID,919.132,VALID,0,VALID,99.1941,VALID,0.0679233,VALID,18.5848,VALID,232,VALID,0.932692,
2000-06-14, 01:20:00,VALID,919.117,VALID,0,VALID,99.1534,VALID,0.0339617,VALID,18.5493,VALID,219,VALID,1.19618,
2000-06-14, 01:21:00,VALID,919.095,VALID,0,VALID,99.161,VALID,0.0339617,VALID,18.5077,VALID,225,VALID,1.01964,
2000-06-14, 01:22:00,VALID,919.081,VALID,0,VALID,99.2068,VALID,0.0169808,VALID,18.4983,VALID,193,VALID,0.592722,
2000-06-14, 01:23:00,VALID,919.07,VALID,0,VALID,99.222,VALID,0.0169808,VALID,18.469,VALID,203,VALID,0.725329,
2000-06-14, 01:24:00,VALID,919.059,VALID,0,VALID,99.2258,VALID,0,VALID,18.4496,VALID,224,VALID,0.806402,
2000-06-14, 01:25:00,VALID,919.049,VALID,0,VALID,99.2411,VALID,0,VALID,18.4201,VALID,200,VALID,0.999199,
2000-06-14, 01:26:00,VALID,919.054,VALID,0,VALID,99.2462,VALID,0,VALID,18.4104,VALID,211,VALID,0.763021,
2000-06-14, 01:27:00,VALID,919.044,VALID,0,VALID,99.2195,VALID,0,VALID,18.3721,VALID,200,VALID,0.854096,
2000-06-14, 01:28:00,VALID,919.054,VALID,0,VALID,99.3492,VALID,0.0169808,VALID,18.3714,VALID,204,VALID,0.839063,
2000-06-14, 01:29:00,VALID,919.058,VALID,0,VALID,99.3695,VALID,0.0509425,VALID,18.3982,VALID,185,VALID,0.547105,
2000-06-14, 01:30:00,VALID,919.064,VALID,0,VALID,99.3708,VALID,0.0679233,VALID,18.3709,VALID,200,VALID,1.24063,
2000-06-14, 01:31:00,VALID,919.063,VALID,0,VALID,99.4039,VALID,0.0679233,VALID,18.3617,VALID,218,VALID,1.13802,
2000-06-14, 01:32:00,VALID,919.069,VALID,0,VALID,99.4433,VALID,0.0169808,VALID,18.4009,VALID,197,VALID,0.508018,
2000-06-14, 01:33:00,VALID,919.064,VALID,0,VALID,99.4217,VALID,0.0169808,VALID,18.3746,VALID,216,VALID,0.757607,
2000-06-14, 01:34:00,VALID,919.057,VALID,0,VALID,99.4458,VALID,0.0169808,VALID,18.3783,VALID,221,VALID,0.482422,
2000-06-14, 01:35:00,VALID,919.04,VALID,0,VALID,99.4446,VALID,0.0509425,VALID,18.3811,VALID,210,VALID,0.921094,
2000-06-14, 01:36:00,VALID,919.021,VALID,0,VALID,99.4827,VALID,0.0679233,VALID,18.4076,VALID,216,VALID,0.905849,
2000-06-14, 01:37:00,VALID,919.015,VALID,0,VALID,99.5209,VALID,0.0339617,VALID,18.4265,VALID,217,VALID,0.901521,
2000-06-14, 01:38:00,VALID,919,VALID,0,VALID,99.4789,VALID,0.0169808,VALID,18.4332,VALID,219,VALID,0.398438,
2000-06-14, 01:39:00,VALID,918.993,VALID,0,VALID,99.4433,VALID,0.0169808,VALID,18.4079,VALID,199,VALID,0.0440705,
2000-06-14, 01:40:00,VALID,918.991,VALID,0,VALID,99.442,VALID,-0.0849042,VALID,18.3906,VALID,218,VALID,0.984164,
2000-06-14, 01:41:00,VALID,918.993,VALID,0,VALID,99.4458,VALID,-0.0849042,VALID,18.3836,VALID,209,VALID,0.840345,
2000-06-14, 01:42:00,VALID,919.008,VALID,0,VALID,99.4229,VALID,-0.0679233,VALID,18.3608,VALID,200,VALID,0.638238,
2000-06-14, 01:43:00,VALID,919.018,VALID,0,VALID,99.4318,VALID,-0.0509425,VALID,18.3548,VALID,201,VALID,0.653863,
2000-06-14, 01:44:00,VALID,919.022,VALID,0,VALID,99.4408,VALID,-0.0679233,VALID,18.3548,VALID,197,VALID,0.898438,
2000-06-14, 01:45:00,VALID,919.031,VALID,0,VALID,99.4471,VALID,-0.0849042,VALID,18.3481,VALID,197,VALID,0.831926,
2000-06-14, 01:46:00,VALID,919.034,VALID,0,VALID,99.4433,VALID,-0.0849042,VALID,18.3195,VALID,192,VALID,0.643029,
2000-06-14, 01:47:00,VALID,919.024,VALID,0,VALID,99.456,VALID,-0.0339617,VALID,18.3126,VALID,197,VALID,0.653988,
2000-06-14, 01:48:00,VALID,919.016,VALID,0,VALID,99.3975,VALID,-0.0679233,VALID,18.2805,VALID,179,VALID,0.647294,
2000-06-14, 01:49:00,VALID,919.021,VALID,0,VALID,99.395,VALID,-0.0849042,VALID,18.2385,VALID,186,VALID,0.803285,
2000-06-14, 01:50:00,VALID,919.016,VALID,0,VALID,99.4992,VALID,-0.0509425,VALID,18.2482,VALID,191,VALID,0.97973,
2000-06-14, 01:51:00,VALID,919,VALID,0,VALID,99.4929,VALID,-0.0679233,VALID,18.2478,VALID,200,VALID,0.850586,
2000-06-14, 01:52:00,VALID,919.001,VALID,0,VALID,99.5272,VALID,-0.0679233,VALID,18.2547,VALID,204,VALID,0.61879,
2000-06-14, 01:53:00,VALID,918.994,VALID,0,VALID,99.5666,VALID,-0.0679233,VALID,18.2671,VALID,197,VALID,0.770559,
2000-06-14, 01:54:00,VALID,918.986,VALID,0,VALID,99.5628,VALID,-0.0849042,VALID,18.2833,VALID,186,VALID,0.769215,
2000-06-14, 01:55:00,VALID,918.993,VALID,0,VALID,99.6073,VALID,-0.101885,VALID,18.3068,VALID,181,VALID,1.1238,
2000-06-14, 01:56:00,VALID,918.984,VALID,0,VALID,99.6048,VALID,-0.0849042,VALID,18.3294,VALID,180,VALID,0.834099,
2000-06-14, 01:57:00,VALID,918.968,VALID,0,VALID,99.5717,VALID,-0.0679233,VALID,18.3322,VALID,163,VALID,0.865986,
2000-06-14, 01:58:00,VALID,918.952,VALID,0,VALID,99.517,VALID,-0.0849042,VALID,18.287,VALID,164,VALID,0.703125,
2000-06-14, 01:59:00,VALID,918.923,VALID,0,VALID,99.5259,VALID,-0.0849042,VALID,18.2648,VALID,170,VALID,0.876519,
2000-06-14, 02:00:00,VALID,918.92,VALID,0,VALID,99.559,VALID,-0.0679233,VALID,18.2413,VALID,175,VALID,0.798564,
2000-06-14, 02:01:00,VALID,918.908,VALID,0,VALID,99.5997,VALID,-0.0509425,VALID,18.2542,VALID,183,VALID,0.633594,
2000-06-14, 02:02:00,VALID,918.913,VALID,0,VALID,99.5781,VALID,-0.101885,VALID,18.2415,VALID,183,VALID,0.643503,
2000-06-14, 02:03:00,VALID,918.904,VALID,0,VALID,99.5946,VALID,-0.101885,VALID,18.2579,VALID,186,VALID,1.08784,
2000-06-14, 02:04:00,VALID,918.909,VALID,0,VALID,99.6137,VALID,-0.0849042,VALID,18.2738,VALID,185,VALID,0.995593,
2000-06-14, 02:05:00,VALID,918.89,VALID,0,VALID,99.5832,VALID,-0.0679233,VALID,18.2575,VALID,201,VALID,1.13702,
2000-06-14, 02:06:00,VALID,918.901,VALID,0,VALID,99.5819,VALID,-0.0679233,VALID,18.2482,VALID,191,VALID,0.851357,
2000-06-14, 02:07:00,VALID,918.882,VALID,0,VALID,99.6239,VALID,-0.0849042,VALID,18.2741,VALID,178,VALID,0.48712,
2000-06-14, 02:08:00,VALID,918.874,VALID,0,VALID,99.6239,VALID,-0.101885,VALID,18.2803,VALID,187,VALID,0.63762,
2000-06-14, 02:09:00,VALID,918.865,VALID,0,VALID,99.6442,VALID,-0.0849042,VALID,18.3027,VALID,198,VALID,0.995144,
2000-06-14, 02:10:00,VALID,918.849,VALID,0,VALID,99.5781,VALID,-0.101885,VALID,18.2939,VALID,195,VALID,0.798353,
2000-06-14, 02:11:00,VALID,918.821,VALID,0,VALID,99.5806,VALID,-0.101885,VALID,18.2549,VALID,182,VALID,0.636052,
2000-06-14, 02:12:00,VALID,918.81,VALID,0,VALID,99.5081,VALID,-0.118866,VALID,18.2132,VALID,175,VALID,0.315538,
2000-06-14, 02:13:00,VALID,918.793,VALID,0,VALID,99.5336,VALID,-0.118866,VALID,18.1649,VALID,183,VALID,0.405469,
2000-06-14, 02:14:00,VALID,918.764,VALID,0,VALID,99.5259,VALID,-0.0849042,VALID,18.1511,VALID,166,VALID,0.0663061,
2000-06-14, 02:15:00,VALID,918.738,VALID,0,VALID,99.5336,VALID,-0.0849042,VALID,18.116,VALID,177,VALID,0,
2000-06-14, 02:16:00,VALID,918.721,VALID,0,VALID,99.5005,VALID,-0.101885,VALID,18.0872,VALID,166,VALID,0,
2000-06-14, 02:17:00,VALID,918.685,VALID,0,VALID,99.381,VALID,-0.118866,VALID,17.9838,VALID,130,VALID,0,
2000-06-14, 02:18:00,VALID,918.666,VALID,0,VALID,99.3632,VALID,-0.101885,VALID,17.8994,VALID,126,VALID,0,
2000-06-14, 02:19:00,VALID,918.628,VALID,0,VALID,99.3568,VALID,-0.0849042,VALID,17.8547,VALID,126,VALID,0,
2000-06-14, 02:20:00,VALID,918.61,VALID,0,VALID,99.3886,VALID,-0.0849042,VALID,17.8187,VALID,123,VALID,0,
2000-06-14, 02:21:00,VALID,918.582,VALID,0,VALID,99.4484,VALID,-0.0169808,VALID,17.7954,VALID,123,VALID,0,
2000-06-14, 02:22:00,VALID,918.583,VALID,0,VALID,99.4687,VALID,-0.0169808,VALID,17.8019,VALID,123,VALID,0,
2000-06-14, 02:23:00,VALID,918.576,VALID,0,VALID,99.47,VALID,0,VALID,17.785,VALID,123,VALID,0,
2000-06-14, 02:24:00,VALID,918.568,VALID,0,VALID,99.4903,VALID,0.0169808,VALID,17.7788,VALID,123,VALID,0,
2000-06-14, 02:25:00,VALID,918.567,VALID,0,VALID,99.4776,VALID,-0.0339617,VALID,17.7726,VALID,123,VALID,0,
2000-06-14, 02:26:00,VALID,918.551,VALID,0,VALID,99.4369,VALID,-0.0169808,VALID,17.7502,VALID,123,VALID,0,
2000-06-14, 02:27:00,VALID,918.538,VALID,0,VALID,99.442,VALID,-0.0509425,VALID,17.7214,VALID,123,VALID,0,
2000-06-14, 02:28:00,VALID,918.522,VALID,0,VALID,99.3861,VALID,-0.0169808,VALID,17.6695,VALID,123,VALID,0,
2000-06-14, 02:29:00,VALID,918.502,VALID,0,VALID,99.3619,VALID,-0.0509425,VALID,17.6113,VALID,123,VALID,0,
2000-06-14, 02:30:00,VALID,918.496,VALID,0,VALID,99.3912,VALID,-0.0339617,VALID,17.5892,VALID,123,VALID,0,
2000-06-14, 02:31:00,VALID,918.481,VALID,0,VALID,99.3848,VALID,-0.101885,VALID,17.5371,VALID,123,VALID,0,
2000-06-14, 02:32:00,VALID,918.485,VALID,0,VALID,99.3683,VALID,-0.0679233,VALID,17.4882,VALID,123,VALID,0,
2000-06-14, 02:33:00,VALID,918.459,VALID,0,VALID,99.3695,VALID,-0.0509425,VALID,17.4432,VALID,124,VALID,0,
2000-06-14, 02:34:00,VALID,918.462,VALID,0,VALID,99.4242,VALID,-0.0339617,VALID,17.4432,VALID,157,VALID,0,
2000-06-14, 02:35:00,VALID,918.461,VALID,0,VALID,99.4153,VALID,-0.0679233,VALID,17.4275,VALID,202,VALID,0,
2000-06-14, 02:36:00,VALID,918.46,VALID,0,VALID,99.4128,VALID,-0.0679233,VALID,17.4019,VALID,210,VALID,0.251519,
2000-06-14, 02:37:00,VALID,918.462,VALID,0,VALID,99.5959,VALID,-0.0849042,VALID,17.4211,VALID,213,VALID,0.956163,
2000-06-14, 02:38:00,VALID,918.448,VALID,0,VALID,99.7434,VALID,-0.0509425,VALID,17.5308,VALID,209,VALID,0.864926,
2000-06-14, 02:39:00,VALID,918.441,VALID,0,VALID,99.8349,VALID,-0.0339617,VALID,17.6439,VALID,207,VALID,0.810714,
2000-06-14, 02:40:00,VALID,918.428,VALID,0,VALID,99.8171,VALID,0.0339617,VALID,17.7458,VALID,207,VALID,0.78125,
2000-06-14, 02:41:00,VALID,918.416,VALID,0,VALID,99.7904,VALID,0.0679233,VALID,17.7717,VALID,208,VALID,0.65408,
2000-06-14, 02:42:00,VALID,918.406,VALID,0,VALID,99.779,VALID,0.0339617,VALID,17.8111,VALID,208,VALID,0.650127,
2000-06-14, 02:43:00,VALID,918.401,VALID,0,VALID,99.7854,VALID,0.0509425,VALID,17.8236,VALID,209,VALID,0.507607,
2000-06-14, 02:44:00,VALID,918.414,VALID,0,VALID,99.7408,VALID,0.0679233,VALID,17.8266,VALID,203,VALID,0.193873,
2000-06-14, 02:45:00,VALID,918.422,VALID,0,VALID,99.7294,VALID,0.0509425,VALID,17.833,VALID,201,VALID,0,
2000-06-14, 02:46:00,VALID,918.435,VALID,0,VALID,99.7269,VALID,0.0339617,VALID,17.8468,VALID,197,VALID,0.180889,
2000-06-14, 02:47:00,VALID,918.446,VALID,0,VALID,99.7459,VALID,0.0339617,VALID,17.8526,VALID,195,VALID,0.866987,
2000-06-14, 02:48:00,VALID,918.454,VALID,0,VALID,99.6951,VALID,0.0339617,VALID,17.8464,VALID,196,VALID,0.784417,
2000-06-14, 02:49:00,VALID,918.462,VALID,0,VALID,99.6073,VALID,0.0169808,VALID,17.7977,VALID,203,VALID,0.657617,
2000-06-14, 02:50:00,VALID,918.466,VALID,0,VALID,99.6862,VALID,0.0679233,VALID,17.765,VALID,219,VALID,1.05699,
2000-06-14, 02:51:00,VALID,918.469,VALID,0,VALID,99.7434,VALID,0.0339617,VALID,17.8236,VALID,212,VALID,0.917578,
2000-06-14, 02:52:00,VALID,918.46,VALID,0,VALID,99.7472,VALID,0.0169808,VALID,17.8494,VALID,207,VALID,0.902043,
2000-06-14, 02:53:00,VALID,918.456,VALID,0,VALID,99.7269,VALID,0.0849042,VALID,17.8589,VALID,207,VALID,0.667969,
2000-06-14, 02:54:00,VALID,918.455,VALID,0,VALID,99.7307,VALID,0.0339617,VALID,17.8526,VALID,211,VALID,0.936472,
2000-06-14, 02:55:00,VALID,918.455,VALID,0,VALID,99.7536,VALID,0.0679233,VALID,17.8653,VALID,204,VALID,0.846875,
2000-06-14, 02:56:00,VALID,918.45,VALID,0,VALID,99.7383,VALID,0.0169808,VALID,17.8854,VALID,201,VALID,0.922852,
2000-06-14, 02:57:00,VALID,918.453,VALID,0,VALID,99.7777,VALID,0.0169808,VALID,17.9013,VALID,200,VALID,1.18029,
2000-06-14, 02:58:00,VALID,918.451,VALID,0,VALID,99.7497,VALID,0.0679233,VALID,17.9142,VALID,203,VALID,0.953947,
2000-06-14, 02:59:00,VALID,918.448,VALID,0,VALID,99.751,VALID,0.0679233,VALID,17.9011,VALID,204,VALID,0.648638,
2000-06-14, 03:00:00,VALID,918.453,VALID,0,VALID,99.7065,VALID,0.0679233,VALID,17.8854,VALID,198,VALID,0.951122,
2000-06-14, 03:01:00,VALID,918.471,VALID,0,VALID,99.7396,VALID,0.0339617,VALID,17.8593,VALID,198,VALID,1.13767,
2000-06-14, 03:02:00,VALID,918.465,VALID,0,VALID,99.7358,VALID,0.0509425,VALID,17.8625,VALID,205,VALID,0.980769,
2000-06-14, 03:03:00,VALID,918.477,VALID,0,VALID,99.7841,VALID,0.0339617,VALID,17.8852,VALID,203,VALID,1.38997,
2000-06-14, 03:04:00,VALID,918.47,VALID,0,VALID,99.7904,VALID,0.0509425,VALID,17.8946,VALID,196,VALID,1.16385,
2000-06-14, 03:05:00,VALID,918.464,VALID,0,VALID,99.7904,VALID,0.0849042,VALID,17.9142,VALID,200,VALID,1.03984,
2000-06-14, 03:06:00,VALID,918.463,VALID,0,VALID,99.7879,VALID,0.0679233,VALID,17.9011,VALID,207,VALID,0.79413,
2000-06-14, 03:07:00,VALID,918.461,VALID,0,VALID,99.7955,VALID,0.0339617,VALID,17.9041,VALID,191,VALID,1.41747,
2000-06-14, 03:08:00,VALID,918.443,VALID,0,VALID,99.8057,VALID,0.0339617,VALID,17.9105,VALID,200,VALID,1.4741,
2000-06-14, 03:09:00,VALID,918.433,VALID,0,VALID,99.8184,VALID,0.0169808,VALID,17.9108,VALID,201,VALID,1.11204,
2000-06-14, 03:10:00,VALID,918.417,VALID,0,VALID,99.8286,VALID,-0.0509425,VALID,17.9183,VALID,191,VALID,1.60477,
2000-06-14, 03:11:00,VALID,918.398,VALID,0,VALID,99.826,VALID,-0.0339617,VALID,17.9216,VALID,190,VALID,1.33214,
2000-06-14, 03:12:00,VALID,918.374,VALID,0,VALID,99.8286,VALID,-0.0339617,VALID,17.9153,VALID,192,VALID,1.45449,
2000-06-14, 03:13:00,VALID,918.376,VALID,0,VALID,99.807,VALID,0,VALID,17.9024,VALID,188,VALID,1.26903,
2000-06-14, 03:14:00,VALID,918.362,VALID,0,VALID,99.8197,VALID,-0.0169808,VALID,17.9022,VALID,195,VALID,0.999178,
2000-06-14, 03:15:00,VALID,918.351,VALID,0,VALID,99.8337,VALID,-0.0679233,VALID,17.8796,VALID,195,VALID,1.37141,
2000-06-14, 03:16:00,VALID,918.332,VALID,0,VALID,99.8527,VALID,-0.0169808,VALID,17.8927,VALID,193,VALID,1.54447,
2000-06-14, 03:17:00,VALID,918.32,VALID,0,VALID,99.8795,VALID,-0.0169808,VALID,17.902,VALID,188,VALID,1.267,
2000-06-14, 03:18:00,VALID,918.304,VALID,0,VALID,99.8744,VALID,-0.0339617,VALID,17.9087,VALID,189,VALID,1.03646,
2000-06-14, 03:19:00,VALID,918.271,VALID,0,VALID,99.8947,VALID,0,VALID,17.9343,VALID,175,VALID,0.919408,
2000-06-14, 03:20:00,VALID,918.247,VALID,0,VALID,99.9011,VALID,-0.0339617,VALID,17.9345,VALID,170,VALID,0.897569,
2000-06-14, 03:21:00,VALID,918.234,VALID,0,VALID,99.8795,VALID,-0.0169808,VALID,17.928,VALID,176,VALID,0.947002,
2000-06-14, 03:22:00,VALID,918.209,VALID,0,VALID,99.9087,VALID,-0.0679233,VALID,17.9412,VALID,192,VALID,1.05879,
2000-06-14, 03:23:00,VALID,918.186,VALID,0,VALID,99.9189,VALID,-0.0169808,VALID,17.9573,VALID,192,VALID,1.05736,
2000-06-14, 03:24:00,VALID,918.175,VALID,0,VALID,99.9303,VALID,0,VALID,17.9566,VALID,191,VALID,1.1288,
2000-06-14, 03:25:00,VALID,918.153,VALID,0,VALID,99.9023,VALID,0.0509425,VALID,17.9654,VALID,190,VALID,1.07292,
2000-06-14, 03:26:00,VALID,918.149,VALID,0,VALID,99.8744,VALID,0,VALID,17.9465,VALID,202,VALID,0.8748,
2000-06-14, 03:27:00,VALID,918.145,VALID,0,VALID,99.8922,VALID,0.0339617,VALID,17.9297,VALID,203,VALID,0.8125,
2000-06-14, 03:28:00,VALID,918.142,VALID,0,VALID,99.9481,VALID,0.0339617,VALID,17.959,VALID,195,VALID,1.26014,
2000-06-14, 03:29:00,VALID,918.135,VALID,0,VALID,99.9519,VALID,0.0339617,VALID,18.0044,VALID,208,VALID,1.12139,
2000-06-14, 03:30:00,VALID,918.141,VALID,0,VALID,99.9329,VALID,0.0509425,VALID,18.0206,VALID,209,VALID,1.25127,
2000-06-14, 03:31:00,VALID,918.141,VALID,0,VALID,99.9125,VALID,0.0169808,VALID,18.0173,VALID,216,VALID,1.21305,
2000-06-14, 03:32:00,VALID,918.152,VALID,0,VALID,99.8884,VALID,0.0169808,VALID,17.9885,VALID,212,VALID,1.15796,
2000-06-14, 03:33:00,VALID,918.164,VALID,0,VALID,99.9011,VALID,0.0169808,VALID,17.985,VALID,209,VALID,1.23655,